Lindcove
DateTemperatureDew Point
09/06 - 03:00 AM61.1°59.7°
09/06 - 02:45 AM62.3°60.7°
09/06 - 02:30 AM62.9°61.0°
09/06 - 02:15 AM62.5°60.3°
09/06 - 02:00 AM62.9°60.4°
09/06 - 01:45 AM64.0°61.0°
09/06 - 01:30 AM65.2°61.5°
09/06 - 01:15 AM67.1°62.8°
09/06 - 01:00 AM66.3°61.2°
09/06 - 12:45 AM66.3°60.0°
09/06 - 12:30 AM66.6°59.2°
09/06 - 12:15 AM67.8°58.4°
09/06 - 12:00 AM69.2°58.4°
09/05 - 11:45 PM70.5°58.0°
09/05 - 11:30 PM69.0°56.2°
09/05 - 11:15 PM69.7°56.9°
09/05 - 11:00 PM68.8°58.6°
09/05 - 10:45 PM69.1°61.0°
09/05 - 10:30 PM68.5°61.3°
09/05 - 10:15 PM69.0°62.6°
09/05 - 10:00 PM68.3°63.0°
09/05 - 09:45 PM68.2°64.4°
09/05 - 09:30 PM70.3°66.4°
09/05 - 09:15 PM74.6°69.9°
09/05 - 09:00 PM73.8°68.9°
09/05 - 08:45 PM75.5°70.0°
09/05 - 08:30 PM76.9°69.8°
09/05 - 08:15 PM75.9°68.0°
09/05 - 08:00 PM75.8°66.9°
09/05 - 07:45 PM78.2°66.9°
09/05 - 07:30 PM79.8°65.9°
09/05 - 07:15 PM80.8°63.3°
09/05 - 07:00 PM83.2°61.8°
09/05 - 06:45 PM85.1°62.1°
09/05 - 06:30 PM85.9°59.1°
09/05 - 06:15 PM86.9°58.0°
09/05 - 06:00 PM87.5°57.2°
09/05 - 05:45 PM87.9°56.3°
09/05 - 05:30 PM88.7°57.3°
09/05 - 05:15 PM88.4°55.6°
09/05 - 05:00 PM88.0°56.1°
09/05 - 04:45 PM87.6°56.5°
09/05 - 04:30 PM87.4°55.9°
09/05 - 04:15 PM87.4°56.4°
09/05 - 04:00 PM86.8°57.0°
09/05 - 03:45 PM86.6°57.4°
09/05 - 03:30 PM86.7°56.9°
09/05 - 03:15 PM86.1°57.7°
09/05 - 03:00 PM85.6°57.3°
09/05 - 02:45 PM85.1°57.2°
09/05 - 02:30 PM85.1°58.5°
09/05 - 02:15 PM84.0°57.8°
09/05 - 02:00 PM83.6°58.2°
09/05 - 01:45 PM82.9°57.4°
09/05 - 01:30 PM82.1°58.0°
09/05 - 01:15 PM81.8°57.7°
09/05 - 01:00 PM81.4°57.3°
09/05 - 12:45 PM80.7°56.8°
09/05 - 12:30 PM80.3°56.8°
09/05 - 12:15 PM79.9°56.7°
09/05 - 12:00 PM78.3°55.6°
09/05 - 11:45 AM78.2°56.4°
09/05 - 11:30 AM77.0°55.6°
09/05 - 11:15 AM76.3°55.6°
09/05 - 11:00 AM75.7°55.5°
09/05 - 10:45 AM74.7°55.3°
09/05 - 10:30 AM74.3°55.3°
09/05 - 10:15 AM73.5°55.3°
09/05 - 10:00 AM72.9°55.9°
09/05 - 09:45 AM72.4°56.2°
09/05 - 09:30 AM71.9°56.3°
09/05 - 09:15 AM71.6°56.8°
09/05 - 09:00 AM68.9°55.0°
09/05 - 08:45 AM67.9°55.2°
09/05 - 08:30 AM67.0°57.1°
09/05 - 08:15 AM66.1°57.6°
09/05 - 08:00 AM64.3°57.2°
09/05 - 07:45 AM63.1°57.0°
09/05 - 07:30 AM61.7°58.0°
09/05 - 07:15 AM60.5°59.3°
09/05 - 07:00 AM59.1°58.5°
09/05 - 06:45 AM58.0°57.3°
09/05 - 06:30 AM57.9°57.1°
09/05 - 06:15 AM58.3°57.2°
09/05 - 06:00 AM58.6°57.2°
09/05 - 05:45 AM58.5°57.0°
09/05 - 05:30 AM58.5°56.7°
09/05 - 05:15 AM58.3°56.5°
09/05 - 05:00 AM59.2°57.2°
09/05 - 04:45 AM59.4°57.4°
09/05 - 04:30 AM59.2°57.6°
09/05 - 04:15 AM60.0°58.6°
09/05 - 04:00 AM60.1°59.0°
09/05 - 03:45 AM62.2°61.1°
09/05 - 03:30 AM63.0°61.8°
09/05 - 03:15 AM63.4°62.2°
09/05 - 03:00 AM64.5°63.2°
09/05 - 02:45 AM64.4°63.3°
09/05 - 02:30 AM64.7°63.7°
09/05 - 02:15 AM64.9°63.9°
09/05 - 02:00 AM64.7°63.8°
09/05 - 01:45 AM65.2°64.1°
09/05 - 01:30 AM65.7°64.4°
09/05 - 01:15 AM66.9°65.5°
09/05 - 01:00 AM68.0°66.4°
09/05 - 12:45 AM68.4°66.6°
09/05 - 12:30 AM69.2°67.2°
09/05 - 12:15 AM66.7°64.5°
09/05 - 12:00 AM65.7°63.7°
09/04 - 11:45 PM66.7°65.1°
09/04 - 11:30 PM68.3°66.8°
09/04 - 11:15 PM68.3°66.6°
09/04 - 11:00 PM68.3°66.5°
09/04 - 10:45 PM68.5°66.3°
09/04 - 10:30 PM68.3°65.9°
09/04 - 10:15 PM69.8°67.2°
09/04 - 10:00 PM70.8°67.7°
09/04 - 09:45 PM70.6°67.3°
09/04 - 09:30 PM72.1°68.3°
09/04 - 09:15 PM73.2°69.0°
09/04 - 09:00 PM73.4°68.6°
09/04 - 08:45 PM73.3°67.7°
09/04 - 08:30 PM73.1°67.1°
09/04 - 08:15 PM74.2°67.5°
09/04 - 08:00 PM74.7°66.3°
09/04 - 07:45 PM76.0°65.5°
09/04 - 07:30 PM77.0°62.7°
09/04 - 07:15 PM77.7°60.6°
09/04 - 07:00 PM78.7°60.1°
09/04 - 06:45 PM80.0°59.8°
09/04 - 06:30 PM80.9°59.8°
09/04 - 06:15 PM81.6°60.0°
09/04 - 06:00 PM82.1°60.0°
09/04 - 05:45 PM82.4°59.8°
09/04 - 05:30 PM82.7°59.4°
09/04 - 05:15 PM83.2°59.6°
09/04 - 05:00 PM83.1°59.3°
09/04 - 04:45 PM83.0°59.3°
09/04 - 04:30 PM83.1°58.8°
09/04 - 04:15 PM83.0°58.7°
09/04 - 04:00 PM82.8°58.7°
09/04 - 03:45 PM83.0°59.5°
09/04 - 03:30 PM82.4°59.1°
09/04 - 03:15 PM82.4°59.2°
09/04 - 03:00 PM81.8°58.4°
09/04 - 02:45 PM81.3°58.5°
09/04 - 02:30 PM81.6°59.0°
09/04 - 02:15 PM81.1°59.4°
09/04 - 02:00 PM80.5°59.3°
09/04 - 01:45 PM79.4°57.9°
09/04 - 01:30 PM79.3°58.1°
09/04 - 01:15 PM78.9°58.2°
09/04 - 01:00 PM78.4°58.7°
09/04 - 12:45 PM78.1°58.6°
09/04 - 12:30 PM76.8°57.2°
09/04 - 12:15 PM76.9°57.7°
09/04 - 12:00 PM75.7°57.4°
09/04 - 11:45 AM75.3°57.9°
09/04 - 11:30 AM74.7°58.1°
09/04 - 11:15 AM74.0°57.8°
09/04 - 11:00 AM73.4°58.2°
09/04 - 10:45 AM72.0°57.9°
09/04 - 10:30 AM72.2°58.3°
09/04 - 10:15 AM71.3°57.9°
09/04 - 10:00 AM70.9°57.6°
09/04 - 09:45 AM70.2°57.5°
09/04 - 09:30 AM69.1°56.7°
09/04 - 09:15 AM68.4°56.4°
09/04 - 09:00 AM67.3°56.2°
09/04 - 08:45 AM66.7°56.5°
09/04 - 08:30 AM66.3°57.4°
09/04 - 08:15 AM65.9°58.4°
09/04 - 08:00 AM66.0°59.5°
09/04 - 07:45 AM65.0°61.1°
09/04 - 07:30 AM64.0°63.8°
09/04 - 07:15 AM62.6°62.6°
09/04 - 07:00 AM60.0°59.9°
09/04 - 06:45 AM58.1°57.8°
09/04 - 06:30 AM57.6°57.2°
09/04 - 06:15 AM58.2°57.8°
09/04 - 06:00 AM58.7°58.3°
09/04 - 05:45 AM58.7°58.2°
09/04 - 05:30 AM58.9°58.4°
09/04 - 05:15 AM59.0°58.4°
09/04 - 05:00 AM59.8°59.1°
09/04 - 04:45 AM59.6°58.7°
09/04 - 04:30 AM59.8°58.8°
09/04 - 04:15 AM60.4°59.3°
09/04 - 04:00 AM60.5°59.3°
09/04 - 03:45 AM61.0°59.6°
09/04 - 03:30 AM61.5°60.0°